Location: Miami, Florida
(25.6830°N, 80.1700°W)
Time: 20:32:20
(UTC-04:00)

Tiangong 2 - Visible Passes

Search period start: 20 April 2019 00:00
Search period end: 30 April 2019 00:00
Orbit: 378 x 389 km, 42.8° (Epoch: 20 April)

Date Brightness Start Highest point End Pass type
(mag) Time Alt. Az. Time Alt. Az. Time Alt. Az.
26 Apr 3.8 06:21:06 10° S 06:22:55 14° SE 06:24:44 10° E visible
28 Apr 2.5 05:57:05 11° SSW 05:59:51 32° SE 06:02:43 10° ENE visible
29 Apr 3.7 05:00:22 14° SE 05:00:22 14° SE 05:01:55 10° ESE visible
